Temperature
9 10 10 10 10 10 10 10 11 11 11 11 11 11 11 11 11 11 11 10 10 10 10 10 10 10 9 9 9 9 8 8 8 7 7 7 6 6 6 5 5 4 4
9 9 10 10 10 10 10 10 11 11 11 11 11 11 11 11 11 11 10 10 10 10 10 10 10 9 9 9 9 8 8 8 7 7 7 6 6 5 5 5 4 4 3
8 9 9 9 10 10 10 10 10 10 11 11 11 11 11 11 11 11 11 10 10 10 10 10 10 9 9 9 9 8 8 8 7 7 6 6 5 5 5 4 4 3 3
8 8 9 9 9 10 10 10 10 10 11 11 11 11 11 11 11 11 11 10 10 10 10 10 10 9 9 9 9 8 8 7 7 6 6 6 5 5 4 4 4 3 3
8 8 8 8 9 9 10 10 10 10 11 11 11 10 10 10 11 11 11 10 10 10 10 9 9 9 9 9 8 8 8 7 7 6 6 5 5 4 4 4 3 3 2
7 7 8 8 8 9 9 10 10 10 10 10 10 10 10 10 10 11 11 10 10 10 9 9 9 9 8 8 8 8 7 7 7 6 6 5 5 4 4 3 2 2 2
7 7 7 8 8 8 8 9 9 10 10 10 10 10 10 10 10 10 10 10 10 10 9 9 9 9 8 8 7 7 7 6 6 6 5 5 4 4 3 3 2 1 1
6 7 7 7 7 7 8 8 9 9 9 10 10 10 10 10 10 10 10 10 10 9 9 9 9 9 8 8 7 7 7 6 6 5 5 4 4 3 3 2 1 1 1
6 6 6 6 7 7 7 8 8 9 9 9 10 10 10 10 10 10 10 9 9 9 9 9 9 8 8 8 7 7 6 6 5 5 4 4 3 3 2 1 1 0 0
6 6 6 6 6 7 7 7 8 8 8 9 9 9 9 10 10 10 9 9 9 9 9 8 8 8 8 7 7 7 6 6 5 4 4 3 3 2 2 1 0 -0 -1
5 6 6 6 6 6 7 7 7 7 8 8 8 9 9 9 9 9 9 9 9 9 8 8 8 8 7 7 7 6 6 5 5 4 4 3 3 2 1 1 0 -1 -1
5 5 6 6 6 6 6 7 7 7 7 8 8 8 8 9 9 9 9 9 9 9 8 8 8 7 7 6 6 6 5 5 4 4 3 3 2 2 1 0 -0 -1 -2
5 5 5 5 6 6 6 6 7 7 7 7 7 8 8 8 8 8 8 8 8 8 8 8 7 7 6 6 5 5 5 4 4 4 3 2 2 1 1 0 -0 -1 -2
5 5 5 5 5 6 6 6 6 7 7 7 7 7 7 8 8 8 8 8 8 7 7 7 7 6 6 5 5 4 4 4 4 3 3 2 1 1 0 -0 -1 -1 -2
4 4 5 5 5 5 5 6 6 7 7 7 7 7 7 7 8 8 8 8 7 7 7 6 6 5 5 5 4 4 4 3 3 3 2 2 1 0 -0 -1 -1 -2 -2
4 4 4 5 5 5 5 5 6 6 6 7 7 7 7 7 7 7 7 7 7 7 7 6 6 5 5 5 4 4 3 3 3 2 2 1 1 0 -0 -1 -2 -2 -3
3 4 4 4 4 5 5 5 5 6 6 6 6 6 7 7 7 7 7 7 7 6 6 6 6 5 5 4 4 4 4 3 2 2 2 1 0 -0 -1 -1 -2 -2 -3
3 3 3 4 4 4 4 4 5 5 5 5 6 6 6 6 6 6 6 6 6 6 6 6 5 5 5 4 4 4 3 3 2 2 1 1 0 -0 -1 -2 -2 -2 -3
3 3 3 3 3 3 4 4 4 4 4 5 5 5 5 5 5 6 6 6 6 5 5 5 5 5 5 4 4 4 3 3 2 1 1 0 -0 -1 -1 -2 -2 -3 -3
2 3 3 3 3 3 3 3 4 4 4 4 4 4 4 4 4 4 5 5 5 5 5 5 5 5 4 4 4 3 3 2 2 1 1 0 -0 -1 -1 -2 -2 -3 -3
2 2 2 2 2 3 3 3 3 3 3 4 4 4 4 4 4 4 4 5 5 5 5 5 5 4 4 4 3 3 3 2 2 1 0 -0 -1 -1 -2 -2 -2 -3 -3
1 1 1 2 2 2 2 3 3 3 3 3 3 3 3 4 4 4 4 4 4 5 5 5 4 4 4 3 3 3 2 2 1 1 0 -0 -1 -1 -2 -2 -3 -3 -4
1 1 1 1 1 2 2 2 2 2 2 3 3 3 3 3 3 4 4 4 4 4 4 4 4 4 3 3 3 3 2 2 1 1 0 -0 -1 -1 -2 -2 -3 -3 -4
-0 0 0 0 1 1 1 1 2 2 2 2 2 3 3 3 3 3 3 3 3 4 4 3 3 3 3 3 2 2 2 1 1 1 0 -0 -1 -1 -2 -2 -3 -3 -4
-1 -0 -0 0 0 0 1 1 1 1 1 2 2 2 2 2 3 3 3 3 3 3 3 3 3 3 2 2 2 2 1 1 1 0 -0 -1 -1 -2 -2 -3 -3 -4 -4
-1 -1 -0 -0 -0 0 0 0 1 1 1 1 2 2 2 2 2 2 2 2 2 2 2 2 2 2 2 2 2 1 1 0 0 -0 -1 -1 -1 -2 -2 -3 -3 -4 -4
Wind_Speed
4 6 8 9 10 11 12 12 11 12 13 15 16 17 16 16 15 14 13 13 13 11 10 10 10 8 6 5 4 4 3 3 3 1 1 1 2 2 1 0 1 2 3
3 4 7 7 8 10 12 12 11 12 13 14 15 16 16 16 16 16 15 14 14 13 12 11 10 8 8 6 5 5 4 4 4 3 1 1 1 2 1 1 2 2 3
3 3 5 6 8 9 11 12 11 12 12 14 14 16 16 16 16 16 15 14 13 13 12 12 11 10 9 7 7 6 5 4 3 3 2 1 1 1 1 1 2 2 4
2 3 4 6 7 8 8 9 10 11 11 13 14 15 15 15 15 15 15 14 12 11 11 11 11 11 11 10 8 7 6 5 3 3 2 1 1 1 1 1 2 2 3
3 3 4 4 5 5 6 8 8 9 10 11 12 13 13 13 14 15 14 13 13 11 10 10 10 11 12 10 8 8 7 6 4 3 2 2 1 1 1 0 1 2 2
3 3 3 3 3 4 5 6 7 8 9 10 12 13 13 12 16 19 16 13 12 12 11 9 9 10 12 12 11 11 10 8 7 5 3 3 3 2 1 0 1 2 2
3 3 3 3 3 4 3 4 6 8 8 9 11 12 13 14 19 20 19 14 12 12 11 10 8 8 11 9 10 10 8 8 9 7 5 4 4 4 3 2 1 1 2
3 3 3 3 3 3 3 4 5 6 7 8 9 11 12 13 19 20 19 13 11 11 11 11 11 10 11 11 9 7 5 4 5 5 5 4 4 4 4 3 2 1 2
4 4 3 3 3 3 4 5 4 4 6 7 8 9 11 13 18 20 18 11 9 10 10 11 12 11 15 17 12 10 7 5 6 9 9 8 8 7 6 4 3 2 1
5 5 3 3 3 4 4 4 3 3 5 5 6 8 10 11 16 20 18 10 10 9 8 10 13 14 18 18 13 12 10 7 7 7 7 8 7 7 7 4 3 1 1
5 4 3 3 4 4 4 4 3 3 4 5 6 6 8 10 16 19 19 11 11 10 9 8 9 17 18 18 14 10 12 11 8 7 6 5 4 4 3 3 2 2 1
4 4 4 4 4 3 4 4 4 5 5 5 6 6 6 8 12 16 19 15 13 10 10 8 10 18 18 17 12 12 16 13 7 7 6 4 4 3 2 3 3 3 1
3 3 3 4 4 4 5 5 4 5 5 5 5 5 5 6 9 15 17 16 16 9 9 14 16 19 17 13 14 17 15 9 7 7 6 4 3 3 3 3 3 4 4
3 3 3 3 4 4 4 4 4 5 6 6 6 6 5 6 7 8 9 10 12 10 10 14 18 18 13 12 12 11 7 7 7 6 5 4 4 4 3 2 1 2 2
3 3 3 2 3 3 3 3 4 4 6 7 7 7 8 7 8 13 12 9 9 10 11 9 8 9 8 7 7 7 6 6 6 5 6 5 5 4 3 2 1 1 1
3 3 2 2 2 2 2 1 1 3 4 6 8 8 7 9 13 14 15 16 17 19 13 10 9 9 9 9 9 7 6 6 6 6 6 6 5 4 3 2 1 1 1
3 3 3 2 2 2 3 3 1 1 2 5 7 9 10 13 15 15 17 18 19 18 9 9 9 9 9 9 8 8 7 6 6 6 6 6 5 4 4 3 2 1 0
3 4 3 2 2 2 2 3 3 3 3 2 4 9 12 14 15 17 18 16 11 10 7 9 9 9 10 9 9 8 7 7 6 6 6 6 5 5 4 3 2 2 1
3 2 2 2 2 2 3 3 3 3 3 3 3 6 10 13 15 16 16 9 10 8 7 8 8 9 9 9 9 9 8 8 7 6 6 6 5 5 4 3 2 2 1
3 4 3 2 2 2 3 3 4 4 4 5 5 6 7 8 7 8 7 7 8 8 8 8 8 9 9 9 9 9 8 8 8 6 6 6 5 5 4 4 3 2 1
2 2 3 2 2 3 3 4 4 5 5 5 5 7 10 8 7 7 7 6 7 8 8 8 8 9 9 9 9 9 9 8 7 7 6 6 5 5 4 4 3 3 2
2 2 2 2 3 3 3 4 4 5 5 5 5 6 10 7 6 7 6 6 6 6 7 8 8 8 9 9 10 10 9 9 8 7 7 6 6 5 5 4 4 3 3
2 3 3 3 3 4 3 4 4 5 5 5 6 6 7 6 6 7 7 6 6 7 7 8 8 8 8 9 9 10 10 10 9 10 9 8 6 6 5 5 5 4 3
3 3 3 3 3 3 4 4 4 5 5 6 6 6 6 6 6 7 6 6 7 7 7 8 9 11 12 11 9 9 9 10 11 10 11 9 8 6 6 5 5 4 4
3 3 4 4 4 4 4 4 4 5 5 6 6 6 6 6 7 7 7 7 7 7 8 9 9 11 13 13 12 11 14 16 15 13 11 9 9 8 7 6 5 5 4
4 4 4 4 4 4 5 5 5 5 5 5 6 7 7 7 7 7 7 7 7 8 8 8 10 12 13 13 14 17 19 19 18 17 13 9 8 8 7 6 7 5 5
Wind_Direction
248 222 207 207 205 204 203 203 201 198 190 184 183 183 183 183 182 182 183 180 184 185 184 185 188 180 178 177 171 167 172 165 196 206 96 106 113 140 99 56 302 303 297
254 244 215 205 205 207 205 201 201 198 193 185 182 184 185 185 183 184 185 185 186 187 187 185 186 180 177 175 172 175 180 176 176 194 172 130 141 151 113 356 340 330 314
271 256 234 210 207 208 207 202 201 198 194 187 185 186 187 186 185 185 185 186 188 188 186 186 185 179 183 179 174 179 180 171 163 167 174 150 103 94 65 359 346 341 330
296 273 251 225 216 210 208 204 200 195 194 188 188 188 187 185 184 183 182 183 184 184 184 184 184 184 185 181 180 178 167 164 166 159 156 147 109 81 81 359 324 323 323
286 278 271 254 229 214 208 203 197 197 196 188 186 186 184 184 185 180 179 179 179 179 179 181 181 179 179 177 175 172 168 170 168 167 164 141 140 115 188 219 305 324 320
274 271 280 270 251 219 208 200 192 195 194 190 188 185 184 187 181 177 176 177 177 178 179 177 174 172 170 167 165 166 167 172 177 175 179 179 188 179 148 119 58 3 299
278 262 259 252 259 239 219 206 199 196 188 189 190 186 186 183 175 174 172 175 177 179 177 173 169 171 164 163 157 152 157 163 169 170 174 185 176 180 163 161 156 301 264
280 277 246 233 238 238 225 221 210 199 189 189 189 188 183 179 172 170 168 174 176 176 174 172 169 167 167 159 150 146 141 140 152 151 159 163 156 156 161 160 154 27 335
277 276 255 234 232 231 224 219 216 201 194 190 186 185 182 178 171 167 164 172 172 173 170 168 167 168 164 154 151 149 139 126 112 118 118 118 118 117 113 108 98 57 351
271 266 249 232 225 227 228 220 207 203 197 188 185 185 180 177 170 166 164 172 170 168 164 168 167 166 163 160 161 158 157 152 134 119 109 104 99 104 106 115 143 115 24
268 255 244 237 229 225 225 215 199 195 186 186 183 182 178 175 170 169 169 175 173 168 168 169 170 163 164 164 161 164 160 148 142 133 123 114 102 96 88 81 92 134 140
273 256 240 234 232 226 217 211 196 186 182 184 177 172 173 173 170 174 173 172 166 168 168 165 163 160 161 160 158 150 143 137 137 134 131 131 130 123 106 88 77 66 74
274 265 247 238 227 217 208 207 195 189 186 183 176 175 171 168 168 168 169 166 161 161 159 156 153 154 153 155 151 146 142 140 142 144 149 152 148 139 116 90 71 56 33
274 271 260 241 227 214 212 204 200 196 189 180 177 175 168 163 164 166 166 159 151 146 143 145 145 144 141 143 144 143 141 148 148 151 148 140 131 127 125 111 86 58 28
275 274 272 246 226 217 220 215 214 219 205 189 185 179 175 178 176 166 163 161 159 151 139 134 136 143 143 142 138 135 136 139 137 136 138 138 136 130 128 117 99 73 35
277 271 265 250 238 212 193 224 225 205 198 188 184 181 180 170 161 160 159 155 151 148 142 148 153 156 157 156 154 150 149 151 148 144 145 145 147 145 139 133 110 81 41
269 269 263 244 232 217 188 181 175 69 138 160 165 167 163 158 157 158 155 152 153 151 146 155 159 161 159 158 158 158 158 155 150 148 148 148 146 144 145 151 150 116 49
266 262 252 231 221 217 199 192 187 180 168 152 151 156 155 155 155 155 152 145 154 157 156 160 163 161 160 159 158 156 152 151 150 150 148 149 149 149 153 161 167 164 147
266 259 244 224 220 217 200 190 186 183 173 162 147 149 150 150 151 155 154 155 160 163 158 158 159 158 158 156 156 155 155 157 155 153 153 152 154 154 157 161 162 161 117
262 257 253 228 217 212 195 188 185 178 172 173 173 163 152 147 150 157 159 155 158 159 157 157 156 153 154 154 154 153 154 154 154 154 155 155 156 158 159 158 156 159 157
250 248 250 235 221 206 196 194 188 177 178 180 179 171 167 164 164 163 162 158 161 160 158 156 154 153 153 153 154 155 155 157 158 158 157 156 155 155 153 150 148 144 131
239 238 237 228 222 209 201 192 182 178 176 175 168 164 165 160 159 160 160 159 157 154 154 154 155 157 159 160 160 159 159 158 159 158 156 153 152 149 146 143 140 137 129
228 235 245 236 215 207 207 187 180 177 175 174 168 164 165 163 162 158 156 155 152 147 145 148 151 151 149 150 155 159 163 165 164 160 156 153 152 151 149 149 147 142 139
228 227 233 229 214 198 186 183 180 176 173 170 167 165 165 161 157 151 151 150 149 147 145 147 150 152 149 148 147 146 145 146 146 149 149 150 150 149 148 147 148 147 145
238 231 227 220 208 191 182 180 177 175 173 167 162 160 158 155 153 151 150 149 148 149 148 146 145 147 149 149 148 146 147 146 144 142 140 140 144 145 147 144 142 141 139
245 237 226 210 200 189 184 182 180 175 171 167 161 161 159 157 155 153 153 152 150 150 148 145 144 146 147 147 147 147 148 148 146 143 137 135 142 143 143 139 138 139 139
Height
1383 1385 1388 1391 1395 1398 1403 1407 1412 1416 1421 1424 1429 1434 1439 1444 1449 1455 1459 1464 1468 1472 1476 1479 1482 1485 1487 1490 1492 1493 1495 1496 1496 1496 1497 1496 1496 1495 1493 1491 1490 1487 1485
1380 1381 1384 1387 1391 1393 1397 1402 1407 1411 1415 1419 1424 1429 1433 1438 1443 1448 1453 1458 1462 1466 1470 1473 1476 1480 1482 1485 1487 1488 1490 1491 1492 1492 1492 1492 1491 1491 1489 1488 1486 1484 1481
1377 1378 1380 1383 1386 1388 1392 1397 1401 1406 1410 1414 1419 1423 1428 1432 1437 1442 1447 1452 1457 1461 1465 1468 1471 1474 1477 1479 1481 1483 1485 1487 1488 1488 1488 1488 1487 1486 1485 1484 1482 1480 1478
1374 1375 1376 1378 1381 1384 1387 1391 1396 1400 1404 1408 1414 1418 1423 1427 1432 1437 1442 1447 1451 1456 1459 1463 1466 1468 1471 1474 1476 1478 1480 1482 1483 1484 1484 1484 1483 1482 1481 1479 1478 1476 1474
1372 1372 1373 1375 1377 1380 1382 1385 1390 1394 1399 1403 1408 1413 1418 1422 1426 1431 1436 1441 1446 1450 1454 1458 1461 1464 1466 1469 1471 1473 1475 1477 1478 1479 1479 1479 1478 1477 1477 1475 1474 1472 1470
1369 1369 1370 1371 1373 1375 1377 1380 1384 1389 1393 1398 1402 1407 1411 1416 1420 1426 1431 1436 1440 1444 1448 1452 1456 1459 1462 1464 1467 1469 1471 1472 1473 1474 1474 1474 1474 1474 1473 1472 1471 1468 1466
1365 1366 1367 1367 1369 1370 1372 1376 1379 1383 1387 1392 1396 1401 1405 1410 1416 1420 1426 1430 1435 1439 1443 1447 1450 1453 1457 1459 1462 1464 1466 1467 1469 1470 1470 1470 1470 1470 1470 1469 1468 1466 1464
1362 1363 1364 1364 1365 1367 1369 1371 1375 1379 1382 1386 1390 1395 1399 1404 1410 1415 1420 1425 1429 1433 1437 1441 1445 1448 1451 1454 1457 1459 1461 1463 1464 1465 1466 1466 1467 1467 1467 1466 1465 1463 1462
1360 1360 1360 1361 1362 1363 1365 1368 1371 1373 1377 1381 1385 1390 1394 1399 1404 1409 1415 1420 1424 1428 1432 1436 1439 1443 1446 1449 1452 1454 1456 1458 1460 1461 1462 1463 1463 1463 1463 1463 1461 1460 1458
1357 1357 1357 1358 1359 1360 1362 1363 1366 1369 1373 1376 1380 1385 1389 1394 1398 1404 1409 1414 1418 1422 1426 1430 1434 1438 1441 1444 1447 1449 1451 1453 1455 1457 1458 1459 1460 1460 1460 1459 1458 1457 1455
1354 1354 1354 1355 1356 1357 1359 1360 1362 1365 1369 1372 1376 1380 1385 1389 1393 1398 1404 1408 1412 1416 1420 1424 1428 1432 1436 1439 1442 1444 1447 1450 1451 1453 1454 1455 1456 1457 1456 1456 1455 1455 1453
1351 1351 1350 1351 1353 1354 1356 1357 1359 1361 1365 1368 1371 1376 1380 1384 1389 1393 1399 1403 1407 1411 1415 1419 1423 1428 1431 1434 1437 1440 1443 1445 1448 1449 1450 1452 1453 1453 1453 1453 1453 1452 1451
1347 1347 1347 1348 1349 1350 1352 1353 1355 1358 1360 1363 1367 1371 1375 1380 1384 1389 1394 1398 1403 1407 1410 1415 1419 1423 1427 1430 1433 1436 1439 1441 1443 1445 1447 1448 1450 1450 1451 1451 1450 1450 1449
1342 1342 1342 1343 1345 1346 1348 1349 1351 1353 1356 1359 1363 1367 1371 1375 1379 1384 1388 1393 1398 1402 1406 1411 1415 1419 1423 1426 1429 1432 1435 1437 1440 1442 1443 1445 1446 1447 1448 1448 1447 1447 1446
1339 1339 1339 1340 1341 1342 1344 1346 1348 1350 1352 1355 1358 1362 1365 1369 1374 1379 1383 1388 1392 1397 1401 1405 1410 1414 1418 1421 1424 1428 1431 1434 1436 1438 1440 1441 1443 1444 1445 1445 1445 1444 1444
1335 1335 1336 1336 1337 1338 1340 1342 1345 1347 1350 1353 1357 1360 1363 1367 1371 1375 1380 1384 1389 1393 1397 1400 1405 1409 1412 1416 1420 1423 1427 1430 1432 1435 1437 1438 1440 1441 1442 1442 1443 1442 1441
1332 1332 1332 1333 1334 1335 1337 1338 1340 1344 1347 1350 1353 1357 1360 1363 1367 1372 1376 1380 1385 1389 1392 1396 1400 1404 1408 1412 1416 1419 1423 1426 1429 1431 1433 1435 1437 1438 1439 1440 1440 1440 1439
1328 1328 1329 1329 1330 1332 1333 1335 1337 1339 1342 1345 1350 1353 1356 1360 1364 1368 1372 1376 1380 1384 1388 1392 1396 1400 1404 1408 1412 1416 1419 1423 1425 1428 1430 1432 1434 1435 1436 1437 1437 1437 1437
1324 1324 1325 1326 1327 1329 1330 1332 1334 1337 1339 1342 1346 1350 1353 1357 1360 1364 1368 1372 1375 1380 1384 1389 1393 1397 1400 1405 1409 1412 1416 1419 1422 1425 1427 1429 1431 1433 1434 1435 1435 1435 1434
1321 1321 1321 1322 1323 1325 1327 1329 1331 1333 1336 1339 1342 1346 1350 1353 1356 1360 1364 1368 1372 1376 1381 1385 1390 1394 1397 1401 1405 1409 1413 1416 1419 1422 1424 1426 1428 1430 1431 1432 1432 1432 1432
1317 1317 1318 1318 1319 1321 1323 1325 1328 1331 1333 1336 1339 1343 1347 1350 1353 1357 1361 1365 1369 1373 1378 1382 1387 1390 1394 1398 1402 1406 1409 1413 1416 1419 1421 1424 1425 1427 1429 1430 1430 1431 1430
1313 1313 1314 1314 1316 1317 1319 1322 1324 1327 1330 1333 1336 1340 1344 1347 1351 1354 1358 1362 1367 1371 1376 1380 1383 1387 1391 1395 1399 1402 1406 1409 1412 1416 1418 1421 1423 1425 1426 1427 1428 1428 1428
1310 1310 1310 1311 1312 1314 1316 1319 1321 1324 1327 1330 1333 1337 1341 1344 1348 1351 1355 1360 1364 1368 1372 1377 1380 1384 1389 1393 1397 1400 1403 1406 1410 1413 1416 1418 1420 1422 1424 1425 1426 1426 1427
1305 1306 1306 1307 1309 1310 1313 1315 1318 1321 1324 1327 1331 1334 1338 1341 1345 1349 1353 1357 1361 1366 1370 1374 1378 1382 1386 1390 1394 1398 1401 1405 1408 1411 1413 1416 1418 1420 1422 1423 1424 1425 1425
1301 1301 1302 1303 1305 1307 1310 1312 1315 1318 1321 1324 1327 1331 1335 1339 1342 1346 1351 1355 1359 1363 1367 1371 1376 1380 1384 1388 1391 1395 1399 1402 1405 1408 1411 1414 1416 1418 1420 1421 1422 1423 1424
1297 1298 1299 1300 1302 1304 1306 1309 1312 1315 1318 1321 1325 1329 1332 1336 1340 1344 1348 1352 1357 1361 1365 1369 1373 1378 1382 1385 1389 1393 1396 1399 1403 1406 1409 1412 1414 1416 1418 1419 1421 1422 1423